Weather History for Whiteman AFB, MO

Change the Weather History Date:

Monday, March 18, 2013

  Actual Average Record
Temperature  
Mean Temperature 42 °F -  
Max Temperature 52 °F 52 °F 76 °F (2012)
Min Temperature 33 °F 33 °F 23 °F (2001)
Degree Days  
Heating Degree Days 22    
Moisture  
Dew Point 33 °F    
Average Humidity 83    
Maximum Humidity 100    
Minimum Humidity 35    
Precipitation  
Precipitation 0.00 in - - ()
Sea Level Pressure  
Sea Level Pressure 29.84 in    
Wind  
Wind Speed 7 mph (NW)    
Max Wind Speed 20 mph    
Max Gust Speed 30 mph    
Visibility 6 miles    
Events      
Averages and records for this station are not official NWS values.
T = Trace of Precipitation, MM = Missing Value Source: NWS Daily Summary

Daily Weather History Graph

Daily Weather History Graph

Search for Another Location

Airport:

Trip Planner

Search our weather history database for the weather conditions in past years. The results will help you decide how hot, cold, wet, or windy it might be!

Date:

Astronomy

Mar. 18, 2013 Rise Set
Actual Time 7:20 AM CDT 7:24 PM CDT
Civil Twilight 6:53 AM CDT 7:51 PM CDT
Nautical Twilight 6:22 AM CDT 8:22 PM CDT
Astronomical Twilight 5:51 AM CDT 8:53 PM CDT
Moon 11:24 AM CDT (3/18) 1:20 AM CDT (3/18)
Length of Visible Light 12h 57m
Length of Day
12h 04m
Waxing Crescent, 41% of the Moon is Illuminated
Mar 18
Waxing Crescent
Mar 19
First Quarter
Mar 27
Full
Apr 2
Last Quarter
Apr 10
New

Hourly Weather History & Observations

Time (CDT) Temp. Windchill Dew Point Humidity Pressure Visibility Wind Dir Wind Speed Gust Speed Precip Events Conditions
12:28 AM 33.8 °F 29.6 °F 33.8 °F 100% 29.74 in 6.0 mi East 4.6 mph - N/A   Overcast
12:58 AM 34.3 °F 31.4 °F 34.3 °F 100% 29.78 in 6.0 mi ESE 3.5 mph - N/A   Overcast
1:58 AM 34.3 °F 31.4 °F 34.3 °F 100% 29.77 in 6.0 mi NNE 3.5 mph - N/A   Overcast
2:48 AM 33.8 °F 29.6 °F 33.8 °F 100% 29.74 in 5.0 mi NNE 4.6 mph - N/A   Overcast
2:58 AM 34.3 °F 30.2 °F 34.3 °F 100% 29.77 in 4.0 mi North 4.6 mph - N/A   Overcast
3:58 AM 34.3 °F 31.4 °F 34.3 °F 100% 29.76 in 4.0 mi Variable 3.5 mph - N/A   Overcast
4:58 AM 34.5 °F - 34.5 °F 100% 29.78 in 4.0 mi NW 2.3 mph - N/A   Overcast
5:58 AM 34.5 °F 30.4 °F 34.5 °F 100% 29.78 in 4.0 mi NW 4.6 mph - N/A   Overcast
6:18 AM 33.8 °F 29.6 °F 33.8 °F 100% 29.75 in 3.0 mi West 4.6 mph - N/A   Overcast
6:23 AM 33.8 °F 29.6 °F 33.8 °F 100% 29.76 in 2.5 mi West 4.6 mph - N/A   Overcast
6:28 AM 33.8 °F 29.6 °F 33.8 °F 100% 29.76 in 2.5 mi WNW 4.6 mph - N/A   Overcast
6:33 AM 33.8 °F 30.8 °F 33.8 °F 100% 29.76 in 3.0 mi NW 3.5 mph - N/A   Overcast
6:43 AM 33.8 °F 29.6 °F 33.8 °F 100% 29.76 in 2.5 mi West 4.6 mph - N/A   Overcast
6:58 AM 34.5 °F 29.4 °F 34.5 °F 100% 29.79 in 2.5 mi WNW 5.8 mph - N/A   Overcast
7:03 AM 33.8 °F 27.7 °F 33.8 °F 100% 29.77 in 3.0 mi WNW 6.9 mph - N/A   Overcast
7:13 AM 35.6 °F 30.7 °F 35.6 °F 100% 29.78 in 2.5 mi WNW 5.8 mph - N/A   Overcast
7:18 AM 35.6 °F 30.7 °F 35.6 °F 100% 29.78 in 2.5 mi WNW 5.8 mph - N/A   Overcast
7:23 AM 33.8 °F 27.0 °F 33.8 °F 100% 29.78 in 3.0 mi WNW 8.1 mph - N/A   Overcast
7:58 AM 34.9 °F 25.7 °F 34.9 °F 100% 29.83 in 2.0 mi West 13.8 mph - N/A   Overcast
8:18 AM 35.6 °F 27.5 °F 35.6 °F 100% 29.80 in 5.0 mi West 11.5 mph - N/A   Overcast
8:54 AM 35.6 °F 27.5 °F 35.6 °F 100% 29.80 in 4.0 mi WNW 11.5 mph - N/A   Overcast
8:58 AM 35.6 °F 28.0 °F 35.6 °F 100% 29.84 in 4.0 mi WNW 10.4 mph - N/A   Overcast
9:03 AM 35.6 °F 28.0 °F 35.6 °F 100% 29.81 in 6.0 mi WNW 10.4 mph - N/A   Overcast
9:58 AM 37.2 °F 29.6 °F 37.0 °F 99% 29.87 in 10.0 mi West 11.5 mph - N/A   Overcast
10:58 AM 38.7 °F 31.4 °F 38.5 °F 99% 29.89 in 10.0 mi West 11.5 mph - N/A   Overcast
11:38 AM 42.8 °F 35.4 °F 41.0 °F 93% 29.86 in 10.0 mi NW 15.0 mph 19.6 mph N/A   Overcast
11:58 AM 43.5 °F 36.1 °F 39.4 °F 85% 29.88 in 10.0 mi NW 16.1 mph - N/A   Scattered Clouds
12:58 PM 48.0 °F - 37.2 °F 66% 29.88 in 10.0 mi NW 12.7 mph 25.3 mph N/A   Scattered Clouds
1:58 PM 51.3 °F - 32.2 °F 48% 29.89 in 10.0 mi NW 12.7 mph 29.9 mph N/A   Clear
2:58 PM 51.8 °F - 31.6 °F 46% 29.88 in 10.0 mi NW 18.4 mph 24.2 mph N/A   Partly Cloudy
3:58 PM 52.3 °F - 26.6 °F 37% 29.89 in 10.0 mi WNW 19.6 mph 25.3 mph N/A   Partly Cloudy
4:58 PM 51.8 °F - 26.4 °F 37% 29.90 in 10.0 mi WNW 18.4 mph 24.2 mph N/A   Partly Cloudy
5:58 PM 52.0 °F - 25.2 °F 35% 29.91 in 10.0 mi WNW 19.6 mph 26.5 mph N/A   Partly Cloudy
6:58 PM 50.2 °F - 23.9 °F 36% 29.93 in 10.0 mi WNW 10.4 mph 21.9 mph N/A   Partly Cloudy
7:58 PM 45.0 °F 40.1 °F 25.9 °F 47% 29.96 in 10.0 mi NNW 9.2 mph - N/A   Clear
8:58 PM 42.4 °F 36.1 °F 26.2 °F 53% 30.02 in 10.0 mi NNW 11.5 mph - N/A   Clear
9:58 PM 38.5 °F 31.1 °F 22.1 °F 52% 30.06 in 10.0 mi North 11.5 mph - N/A   Clear
10:58 PM 35.6 °F 29.2 °F 21.4 °F 56% 30.09 in 10.0 mi North 8.1 mph - N/A   Clear
11:58 PM 33.4 °F 26.6 °F 20.7 °F 59% 30.09 in 10.0 mi NNW 8.1 mph - N/A   Clear